Location: Dilsberg
(49.3983°N, 8.8354°E)
Time: 20:35:30
(UTC+00:00)

Cosmos 2369 - Pass Details

Date: 19 May 2025
Orbit: 839 x 853 km, 71.0° (Epoch: 15 June)

Event Time Altitude Azimuth Distance (km) Brightness Sun altitude
Rises 21:30:24 0° 331° (NNW) 3,415 8.7 -16.4°
Reaches altitude 10° 21:32:51 10° 332° (NNW) 2,475 7.5 -16.6°
Maximum altitude 21:38:33 85° 60° (ENE) 852 3.7 -17.0°
Enters shadow 21:41:37 29° 149° (SSE) 1,512 4.4 -17.2°
